Погода в Илюшкине

Россия / Ульяновская область     52°35′44″N   47°06′19″E
темп.,
°C
ветер,
м/с
пор.,
м/с
влажн.,
%
обл.,
%
осадки,
мм/ч
давл.,
гПа
погр.,
м
14 апреля, ср
ср1401:00+9в22611 0.0 103014
04:00+8всв22681 0.0 102914
07:00+7всв33744 0.0 102852
10:00+13вюв69625 0.0 1027486
13:00+17вюв79451 0.0 10251047
16:00+18вюв68375 0.0 10231427
19:00+15в48565 0.0 1022170
22:00+11в39710 0.0 1022153
15 апреля, чт
чт1501:00+9в22774 0.0 102116
04:00+8всв228136 0.0 102112
07:00+8всв227978 0.0 102019
10:00+14вюв455769 0.0 1019347
13:00+19вюв554319 0.0 1018789
16:00+20вюв4538100 0.0 10171303
19:00+17в355016 0.0 101775
22:00+13всв335858 0.0 101726
16 апреля, пт
пт1601:00+11всв2261100 0.0 101712
04:00+10св2260100 0.0 101712
07:00+10св3365100 0.0 101745
10:00+15св5758100 0.0 1018372
13:00+18всв5643100 0.0 10181288
16:00+19всв654140 0.0 10182306
19:00+15св6106295 0.0 1019442
22:00+11св713788 0.0 1021391
17 апреля, сб
сб1701:00+9св613831 0.0 1021351
04:00+7св511841 0.0 1022296
07:00+6св611793 0.0 1023344
10:00+10св79613 0.0 1023612
13:00+13всв78450 0.0 10241060
16:00+14всв77370 0.0 10241316
19:00+11св69420 0.0 1024507
22:00+7св613491 0.0 1026383
18 апреля, вс
вс1801:00+5св411605 0.0 1027261
04:00+4св4106633 0.0 1027185
07:00+4св497163 0.0 1028228
10:00+9всв565252 0.0 1028867
13:00+12всв55435 0.0 10281493
16:00+13всв56405 0.0 10271651
19:00+11всв58474 0.0 1028399
22:00+7св410597 0.0 1029248